Location: ????????
(37.6846°N, 24.0673°E)
Time: 14:40:01
(UTC+00:00)

Cosmos 1378 - Pass Details

Date: 14 July 2020
Orbit: 493 x 500 km, 82.5° (Epoch: 04 August)

Event Time Altitude Azimuth Distance (km) Brightness Sun altitude
Rises 01:53:37 0° 344° (NNW) 2,600 7.1 -13.8°
Reaches altitude 10° 01:55:50 10° 337° (NNW) 1,712 6.1 -13.4°
Maximum altitude 01:59:21 40° 267° (W) 751 3.6 -12.9°
Enters shadow 02:01:45 18° 205° (SSW) 1,288 4.7 -12.5°
